Dewpoint
18 19 19 19 22 26 26 31 31 28 30 39 46 46 50 56 59 59 59 58 59 60 62 63 63 62 60 61 61 60 59 58 57 57 56 54 55 54
19 19 19 20 21 22 28 29 31 31 29 32 39 37 40 42 45 58 59 58 58 59 60 61 62 62 61 60 60 59 59 58 57 57 57 54 52 53
18 18 18 19 20 24 24 26 28 31 30 32 33 35 39 43 45 46 59 59 58 59 60 61 61 61 60 60 60 59 59 58 57 57 56 55 53 53
17 18 18 17 18 19 20 24 26 28 31 30 32 36 37 39 41 43 56 59 58 57 59 60 60 60 60 60 59 59 58 57 57 57 56 56 55 54
18 18 18 17 18 19 19 22 25 27 32 32 32 34 35 38 41 41 44 58 58 58 57 58 59 59 59 59 58 58 57 57 56 56 56 56 56 55
18 19 19 18 18 18 19 21 22 26 27 28 30 32 34 35 38 41 43 51 57 58 57 58 58 58 58 59 58 57 57 57 57 56 55 55 56 56
18 18 19 20 20 20 20 21 22 23 26 28 28 29 31 33 36 38 39 41 56 57 56 57 57 58 57 58 57 56 57 57 57 56 55 55 55 55
19 19 20 21 22 23 25 26 27 27 27 26 27 27 28 33 34 36 37 38 43 57 56 55 58 57 57 58 57 56 56 56 56 55 55 55 55 55
23 21 21 21 22 23 23 22 24 26 28 29 29 27 29 31 34 33 36 37 39 42 49 54 56 56 58 58 57 55 54 55 55 54 54 54 54 54
23 22 22 21 22 22 21 23 24 24 25 25 27 28 29 31 34 35 35 36 38 40 44 50 53 54 56 57 55 54 54 54 55 54 54 54 54 54
23 24 24 23 24 24 23 26 25 25 25 25 25 26 27 28 31 34 33 33 33 38 42 52 52 52 54 55 55 53 53 53 53 53 53 54 53 53
22 22 23 24 25 25 25 27 25 25 26 26 26 26 26 29 31 33 35 32 33 35 43 45 50 49 48 48 54 53 53 52 52 53 53 53 53 55
25 24 24 25 26 26 28 30 28 27 27 28 28 27 27 28 30 34 36 35 34 35 40 41 42 42 46 43 47 52 54 53 52 52 52 52 52 55
29 28 27 26 27 28 28 28 31 33 32 31 30 29 29 29 29 31 35 37 38 37 38 43 42 42 40 40 46 42 52 53 53 52 52 52 51 53
28 29 30 30 33 32 29 30 29 30 29 31 29 31 31 34 32 31 32 35 38 39 41 42 42 41 42 42 41 43 45 49 51 52 52 51 50 51
26 25 27 27 28 31 33 32 30 31 31 30 29 30 30 29 28 29 30 32 34 34 36 41 43 42 43 44 42 41 46 44 47 50 50 51 50 50
22 21 21 21 22 23 25 27 28 29 30 30 29 29 29 28 28 29 29 30 32 32 34 37 40 42 43 43 42 43 42 43 45 47 46 44 44 46
20 19 19 20 20 20 21 22 23 25 25 25 26 28 29 31 29 28 28 30 30 29 32 35 37 38 39 39 42 42 42 43 43 42 46 43 40 38
17 18 18 19 19 20 20 20 21 22 24 25 25 25 26 27 27 30 29 29 29 28 30 35 36 39 37 37 39 39 42 40 39 39 42 42 41 35
17 17 17 18 19 19 20 20 21 21 22 23 24 24 24 24 25 27 28 29 28 27 28 33 36 38 38 37 39 38 37 38 39 39 34 33 34 36
16 16 17 18 18 19 20 21 21 21 23 24 24 24 24 24 23 25 26 26 27 28 28 30 34 39 40 38 37 34 34 38 40 38 34 34 29 30
15 16 17 18 18 19 20 20 21 21 22 23 24 25 25 25 24 23 24 25 26 28 28 29 33 39 37 40 39 32 32 32 36 36 36 32 32 30
15 16 17 17 18 19 19 20 20 20 23 24 24 24 25 24 25 24 24 25 26 27 28 28 32 38 38 40 37 31 29 29 31 31 30 33 34 34
Wind_Speed
19 19 19 18 17 15 16 17 14 13 14 6 6 18 15 9 23 22 29 32 38 40 40 41 39 38 36 36 35 35 33 32 31 31 31 30 28 25
18 19 19 18 18 18 18 14 16 15 15 9 8 28 20 22 19 20 29 27 35 40 40 38 40 37 39 37 35 36 34 32 32 31 31 29 29 27
20 21 22 20 19 17 14 17 17 17 23 25 21 19 22 21 19 25 30 29 26 36 40 40 39 38 40 41 39 36 35 35 35 34 32 32 31 27
22 21 22 19 21 19 17 18 18 18 18 28 22 19 18 18 20 24 22 27 27 31 37 38 41 42 40 43 41 38 36 36 36 33 33 31 31 31
23 22 21 21 21 19 18 17 17 18 16 18 20 18 17 15 16 18 24 26 28 33 40 39 39 41 43 36 37 39 38 35 35 34 32 32 32 32
22 22 22 23 22 21 20 20 17 17 18 19 18 19 16 12 14 16 21 18 28 28 30 35 35 38 40 43 39 37 39 39 36 31 34 34 34 32
24 23 23 23 24 23 20 20 19 17 16 18 18 17 16 13 11 10 17 20 24 24 26 25 25 27 31 38 38 42 41 41 38 38 36 35 33 33
22 21 22 24 24 28 29 30 26 21 19 17 20 19 19 14 6 10 14 19 15 17 27 25 25 26 25 28 34 40 41 40 39 39 38 34 36 35
21 22 21 20 22 22 24 27 28 29 29 22 22 21 18 15 6 8 10 17 14 21 16 22 22 25 22 24 34 38 40 42 40 37 36 37 36 35
22 23 23 23 22 21 22 22 23 22 22 20 18 19 18 13 8 8 11 17 22 19 15 13 16 21 20 21 34 37 38 40 41 39 39 38 36 35
20 21 22 22 24 26 23 22 22 22 21 26 28 27 26 25 21 14 15 11 16 15 13 7 12 17 20 21 22 35 37 39 36 38 38 37 36 34
19 21 25 25 27 26 23 20 22 21 20 19 18 21 22 21 22 21 15 14 13 15 7 7 11 14 9 5 19 21 27 36 37 36 37 36 36 28
19 18 18 25 26 26 27 22 23 22 22 20 18 17 17 17 15 14 16 16 16 21 16 13 7 8 7 7 7 19 25 23 26 26 35 36 36 32
10 16 18 23 24 26 24 24 26 27 21 18 17 18 18 16 13 13 15 18 20 26 19 9 9 10 12 5 12 9 23 21 24 24 23 26 34 36
12 15 15 14 18 26 28 27 25 18 17 19 17 14 14 13 13 13 14 16 19 18 21 19 16 17 15 12 9 15 18 18 22 23 22 24 24 23
13 11 12 12 11 10 18 20 18 16 16 15 15 13 12 13 16 14 15 16 17 20 20 17 15 18 16 14 11 14 17 19 21 23 23 21 19 21
13 11 11 12 11 10 9 6 5 6 12 14 17 16 16 17 17 15 16 15 18 19 16 14 15 19 19 18 18 14 17 16 25 23 19 19 16 20
12 11 12 12 11 11 10 10 9 9 10 10 13 13 14 14 17 16 16 18 22 21 20 14 14 13 9 9 14 15 17 18 17 22 21 22 21 14
13 14 13 13 13 12 11 11 12 11 11 12 13 13 15 16 20 17 17 20 23 23 21 14 16 19 21 24 8 7 19 14 17 20 22 23 22 20
13 14 15 14 14 14 13 13 13 13 13 13 13 14 15 17 18 20 21 21 21 22 20 17 17 24 28 27 13 8 4 16 16 20 13 9 13 17
15 15 15 15 15 15 15 15 14 14 14 14 15 17 18 18 21 22 23 28 26 22 24 25 26 24 12 11 12 8 4 6 16 26 19 17 13 14
15 16 16 16 16 16 16 16 16 16 16 16 16 17 18 19 22 23 24 25 25 25 26 23 19 19 17 25 23 12 11 9 14 18 13 9 14 19
16 16 17 17 17 17 17 17 18 19 18 18 18 19 19 21 22 24 25 25 26 25 25 23 21 19 24 23 16 19 17 19 15 19 7 8 10 12
Wind_Direction
267 265 265 263 263 264 279 275 278 283 292 292 318 19 347 258 217 202 206 199 196 199 205 204 208 198 200 198 196 193 194 194 194 193 194 195 202 206
263 263 263 262 261 266 261 271 272 272 272 285 289 320 329 315 310 237 203 196 198 201 205 206 202 189 198 195 193 190 192 194 189 194 193 197 205 207
263 263 264 262 261 258 264 263 265 262 262 279 285 301 310 307 322 334 206 198 199 203 207 204 200 195 194 194 190 189 190 189 190 194 195 196 198 206
261 259 261 262 260 260 258 258 262 264 267 274 287 292 285 314 312 297 254 198 203 201 210 209 203 199 198 197 190 187 189 190 191 193 193 196 195 201
258 257 256 257 256 255 254 255 259 264 268 272 280 285 293 298 314 316 315 200 204 203 205 208 204 198 196 195 192 188 187 188 191 191 191 193 196 198
254 254 253 252 252 254 254 254 254 262 274 271 275 280 287 294 299 310 319 319 206 197 199 204 203 200 194 194 194 185 185 186 192 196 193 195 195 198
251 251 251 250 250 248 248 251 252 252 257 269 282 282 283 297 305 335 314 312 232 193 196 197 197 201 199 194 194 184 186 190 193 200 197 196 198 198
245 248 249 250 253 250 248 248 247 247 245 255 266 273 284 292 308 304 329 313 310 189 186 197 191 195 193 197 196 188 187 192 195 200 197 195 199 202
235 238 242 240 242 242 250 254 255 256 255 255 260 265 275 281 291 298 302 294 291 296 297 189 188 197 192 195 189 186 187 189 191 198 196 197 198 201
249 249 247 249 244 244 248 251 254 258 261 264 261 264 265 272 287 289 279 301 294 291 279 219 181 203 190 191 187 186 187 191 193 196 198 198 198 201
252 248 243 245 244 246 246 245 247 250 252 255 256 257 260 261 260 262 260 265 295 298 304 283 181 188 189 193 190 190 190 191 196 193 196 196 198 200
249 245 245 243 241 244 243 240 246 249 248 248 251 258 261 262 260 253 255 250 265 292 276 227 163 160 172 181 193 191 194 194 194 195 197 198 196 203
242 244 240 241 246 249 242 231 233 242 245 244 246 252 248 243 243 244 233 230 241 247 249 340 317 295 146 148 158 184 191 192 198 200 197 195 194 197
278 245 243 246 244 245 248 245 242 242 239 235 233 239 244 244 243 244 239 232 232 243 266 269 279 299 326 176 166 178 191 191 191 196 197 199 190 187
332 318 314 303 278 245 247 242 245 247 250 246 236 246 244 242 249 236 248 253 253 260 253 243 234 263 254 253 186 174 174 190 184 189 188 187 190 189
346 337 339 338 320 332 240 238 243 238 240 246 249 245 243 247 245 249 246 248 249 251 256 252 237 235 241 253 229 183 173 181 187 188 187 191 183 184
356 352 354 357 355 352 347 338 318 287 256 255 250 246 242 238 241 240 243 250 251 257 259 245 236 238 250 247 251 220 189 179 188 180 174 178 183 186
359 356 351 349 347 341 334 324 314 295 278 273 271 268 260 247 236 226 233 243 244 243 239 233 204 202 205 221 213 200 199 193 173 174 187 187 188 189
358 349 342 338 332 327 322 316 307 295 288 273 264 262 260 258 249 243 225 225 241 246 244 224 212 200 209 224 192 217 198 182 164 172 180 189 194 190
349 339 333 328 324 319 315 307 301 294 282 272 258 252 253 256 254 246 240 234 233 245 249 239 220 224 212 215 200 196 257 173 177 172 158 112 86 118
336 329 325 321 317 314 310 305 297 291 282 271 262 250 243 240 247 248 245 239 234 231 234 232 225 227 217 139 190 193 144 178 181 170 160 159 142 148
329 323 319 316 313 311 308 304 299 295 286 276 267 259 252 243 243 245 244 240 233 231 233 238 235 210 193 200 205 171 139 109 103 130 134 124 178 166
324 320 317 313 312 311 309 306 301 293 287 280 273 268 259 251 243 241 241 237 234 229 227 230 223 218 208 205 169 159 147 138 138 128 79 99 104 109